Terminal Aerodrome Forecast
Issued by NWS Sterling, VA

Current Version | Previous Version | Graphics & Text | Print | Product List | Glossary On
Versions: 1 2 3 4 5 6 7 8 9 10 11 12 13 14 15 16 17 18 19 20 21 22 23 24 25 26 27
000
FTUS41 KLWX 222300
TAFIAD
TAF
KIAD 222336Z 2300/2406 33014G26KT P6SM BKN050
     FM232100 32016KT P6SM SCT090
     FM232300 32013KT P6SM BKN090
     FM240300 32011KT P6SM SCT150=

USA.gov is the U.S. government's official web portal to all federal, state and local government web resources and services.